Weather History for Peoria, IL

Change the Weather History Date:

Saturday, February 2, 2013

  Actual Average Record
Temperature  
Mean Temperature 23 °F 26 °F  
Max Temperature 28 °F 34 °F 54 °F (1920)
Min Temperature 17 °F 18 °F -20 °F (1905)
Degree Days  
Heating Degree Days 42 39  
Month to date heating degree days 96 78  
Since 1 July heating degree days 3383 3599  
Cooling Degree Days 0 0  
Month to date cooling degree days 0 0  
Year to date cooling degree days 0 0  
Moisture  
Dew Point 16 °F    
Average Humidity 77    
Maximum Humidity 92    
Minimum Humidity 61    
Precipitation  
Precipitation 0.03 in 0.05 in 0.70 in (1896)
Month to date precipitation 0.06 0.10  
Year to date precipitation 3.89 1.88  
Snow  
Snow 0.50 in 0.30 in 3.50 in (1961)
Month to date snowfall 0.8 0.5  
Since 1 July snowfall 4.4 15.6  
Snow Depth 1.00 in    
Sea Level Pressure  
Sea Level Pressure 30.10 in    
Wind  
Wind Speed 8 mph (WSW)    
Max Wind Speed 16 mph    
Max Gust Speed 21 mph    
Visibility 6 miles    
Events Snow    
T = Trace of Precipitation, MM = Missing Value Source: NWS Daily Summary

Daily Weather History Graph

Daily Weather History Graph

Search for Another Location

Airport:

Trip Planner

Search our weather history database for the weather conditions in past years. The results will help you decide how hot, cold, wet, or windy it might be!

Date:

Astronomy

Feb. 02, 2013 Rise Set
Actual Time 7:07 AM CST 5:18 PM CST
Civil Twilight 6:38 AM CST 5:46 PM CST
Nautical Twilight 6:05 AM CST 6:19 PM CST
Astronomical Twilight 5:33 AM CST 6:51 PM CST
Moon No Moon Rise 10:15 AM CST (2/2)
Length of Visible Light 11h 08m
Length of Day
10h 10m
Waning Gibbous, 59% of the Moon is Illuminated
Feb 2
Waning Gibbous
Feb 3
Last Quarter
Feb 10
New
Feb 17
First Quarter
Feb 25
Full

Hourly Weather History & Observations

Time (CST) Temp. Windchill Dew Point Humidity Pressure Visibility Wind Dir Wind Speed Gust Speed Precip Events Conditions
12:44 AM 21.0 °F 9.9 °F 18.0 °F 88% 30.16 in 2.0 mi SSW 10.4 mph - 0.01 in Snow Light Snow
12:52 AM 21.2 °F 10.1 °F 17.6 °F 86% 30.15 in 1.5 mi SSW 10.4 mph - 0.01 in Snow Light Snow
12:54 AM 21.0 °F 11.4 °F 18.0 °F 88% 30.19 in 1.8 mi SSW 8.1 mph - 0.01 in Snow Light Snow
1:19 AM 21.0 °F 9.3 °F 18.0 °F 88% 30.14 in 1.2 mi SSW 11.5 mph - 0.01 in Snow Light Snow
1:34 AM 21.0 °F 10.6 °F 19.0 °F 92% 30.13 in 1.8 mi South 9.2 mph - 0.02 in Snow Light Snow
1:37 AM 21.0 °F 9.9 °F 19.0 °F 92% 30.13 in 2.5 mi SSW 10.4 mph - 0.02 in Snow Light Snow
1:45 AM 21.9 °F 11.0 °F 19.0 °F 89% 30.13 in 5.0 mi SSW 10.4 mph - 0.02 in Snow Light Snow
1:54 AM 21.9 °F 10.4 °F 19.0 °F 89% 30.15 in 9.0 mi SSW 11.5 mph - 0.02 in   Overcast
2:54 AM 21.9 °F 11.0 °F 19.0 °F 89% 30.12 in 10.0 mi SSW 10.4 mph - N/A   Overcast
3:54 AM 23.0 °F 12.4 °F 18.0 °F 81% 30.10 in 10.0 mi SSW 10.4 mph - N/A   Overcast
4:54 AM 24.1 °F 13.7 °F 18.0 °F 77% 30.08 in 10.0 mi SSW 10.4 mph - N/A   Overcast
5:48 AM 24.8 °F 14.6 °F 17.6 °F 74% 30.03 in 2.5 mi SW 10.4 mph - 0.00 in Snow Light Snow
5:49 AM 25.0 °F 14.8 °F 18.0 °F 75% 30.07 in 2.5 mi SW 10.4 mph - 0.00 in Snow Light Snow
5:53 AM 24.1 °F 14.4 °F 19.0 °F 81% 30.04 in 3.0 mi SW 9.2 mph - 0.00 in Snow Light Snow
6:50 AM 24.8 °F 16.9 °F 21.2 °F 86% 30.04 in 2.0 mi WSW 6.9 mph - 0.00 in Snow Light Snow
6:54 AM 25.0 °F 15.5 °F 21.0 °F 85% 30.07 in 2.0 mi WSW 9.2 mph - 0.00 in Snow Light Snow
7:02 AM 25.0 °F 16.3 °F 21.0 °F 85% 30.04 in 1.5 mi WSW 8.1 mph - 0.00 in Snow Light Snow
7:14 AM 25.0 °F 18.1 °F 21.9 °F 88% 30.04 in 3.0 mi WSW 5.8 mph - 0.00 in Snow Light Snow
7:23 AM 25.0 °F 17.1 °F 21.9 °F 88% 30.04 in 4.0 mi WSW 6.9 mph - 0.00 in Snow Light Snow
7:45 AM 25.0 °F 17.1 °F 21.9 °F 88% 30.03 in 10.0 mi WSW 6.9 mph - 0.00 in   Overcast
7:54 AM 25.0 °F 17.1 °F 21.9 °F 88% 30.07 in 10.0 mi WSW 6.9 mph - 0.00 in   Overcast
8:54 AM 27.0 °F 18.7 °F 21.9 °F 81% 30.07 in 10.0 mi West 8.1 mph - N/A   Overcast
9:54 AM 28.0 °F 18.6 °F 21.9 °F 78% 30.07 in 10.0 mi WNW 10.4 mph - N/A   Overcast
10:54 AM 28.0 °F 18.6 °F 21.0 °F 75% 30.08 in 10.0 mi WNW 10.4 mph - N/A   Overcast
11:54 AM 25.0 °F 14.8 °F 19.0 °F 78% 30.09 in 9.0 mi NNW 10.4 mph 17.3 mph N/A   Overcast
12:54 PM 23.0 °F 12.4 °F 17.1 °F 78% 30.09 in 5.0 mi NNW 10.4 mph 17.3 mph N/A   Haze
1:54 PM 21.0 °F 11.4 °F 15.1 °F 78% 30.11 in 3.0 mi NNW 8.1 mph - 0.00 in Snow Light Snow
2:26 PM 21.0 °F 12.4 °F 14.0 °F 74% 30.09 in 2.5 mi NW 6.9 mph - 0.00 in Snow Light Snow
2:51 PM 19.4 °F 7.2 °F 12.2 °F 74% 30.10 in 5.0 mi NW 11.5 mph 19.6 mph 0.00 in   Haze
2:54 PM 19.9 °F 7.9 °F 12.0 °F 71% 30.13 in 7.0 mi NW 11.5 mph - 0.00 in   Overcast
3:54 PM 19.9 °F 9.3 °F 12.0 °F 71% 30.14 in 7.0 mi NW 9.2 mph - 0.00 in   Overcast
4:54 PM 19.0 °F 11.1 °F 9.0 °F 65% 30.16 in 10.0 mi NW 5.8 mph - N/A   Overcast
5:54 PM 19.0 °F 12.3 °F 10.0 °F 68% 30.16 in 10.0 mi NW 4.6 mph - N/A   Overcast
6:07 PM 19.0 °F 12.3 °F 10.0 °F 68% 30.13 in 10.0 mi NW 4.6 mph - N/A   Overcast
6:54 PM 17.1 °F 8.7 °F 7.0 °F 65% 30.16 in 10.0 mi WNW 5.8 mph - N/A   Mostly Cloudy
7:11 PM 17.6 °F 12.3 °F 6.8 °F 63% 30.13 in 10.0 mi WNW 3.5 mph - N/A   Overcast
7:36 PM 17.1 °F - 8.1 °F 68% 30.11 in 10.0 mi Calm Calm - N/A   Overcast
7:54 PM 17.1 °F - 8.1 °F 68% 30.15 in 10.0 mi Calm Calm - N/A   Overcast
8:54 PM 17.1 °F - 9.0 °F 71% 30.14 in 10.0 mi Calm Calm - N/A   Overcast
9:18 PM 18.0 °F - 8.1 °F 65% 30.10 in 10.0 mi Calm Calm - N/A   Overcast
9:54 PM 18.0 °F 12.7 °F 8.1 °F 65% 30.13 in 10.0 mi West 3.5 mph - N/A   Overcast
10:09 PM 17.1 °F - 9.0 °F 71% 30.09 in 10.0 mi Calm Calm - N/A   Overcast
10:54 PM 17.1 °F 10.0 °F 10.9 °F 77% 30.09 in 8.0 mi SSW 4.6 mph - N/A   Overcast
11:46 PM 17.1 °F 11.7 °F 12.0 °F 81% 30.05 in 1.8 mi South 3.5 mph - 0.00 in Snow Light Snow
11:54 PM 17.1 °F - 12.0 °F 81% 30.08 in 2.0 mi Calm Calm - 0.01 in Snow Light Snow